Time,TemperatureF,DewpointF,PressureIn,WindDirection,WindDirectionDegrees,WindSpeedMPH,WindSpeedGustMPH,Humidity,HourlyPrecipIn,Conditions,Clouds,dailyrainin,SoftwareType,DateUTC
2014-10-01 00:03:00,53.6,48.9,30.03,North,1,0.0,2.0,84,0.00,,BKN017,0.00,VWS V14.01,2014-10-01 04:03:00,
2014-10-01 00:08:00,53.6,48.9,30.03,North,0,0.0,2.0,84,0.00,,BKN017,0.00,VWS V14.01,2014-10-01 04:08:00,
2014-10-01 00:13:00,53.6,48.9,30.03,North,1,1.0,2.0,84,0.00,,BKN017,0.00,VWS V14.01,2014-10-01 04:13:00,
2014-10-01 00:18:00,53.6,49.2,30.03,North,0,0.0,2.0,85,0.00,,BKN017,0.00,VWS V14.01,2014-10-01 04:18:00,
2014-10-01 00:23:00,53.6,48.9,30.03,North,0,0.0,2.0,84,0.00,,BKN017,0.00,VWS V14.01,2014-10-01 04:23:00,
2014-10-01 00:28:00,53.7,49.3,30.03,North,0,0.0,0.0,85,0.00,,BKN017,0.00,VWS V14.01,2014-10-01 04:28:00,
2014-10-01 00:33:00,53.7,49.3,30.03,North,0,0.0,0.0,85,0.00,,OVC013,0.00,VWS V14.01,2014-10-01 04:33:00,
2014-10-01 00:38:00,53.7,49.3,30.04,North,0,1.0,2.0,85,0.00,,OVC013,0.00,VWS V14.01,2014-10-01 04:38:00,
2014-10-01 00:43:00,53.7,49.3,30.03,North,0,3.0,3.0,85,0.00,,OVC013,0.00,VWS V14.01,2014-10-01 04:43:00,
2014-10-01 00:48:00,53.6,49.2,30.02,North,352,2.0,2.0,85,0.00,,OVC013,0.00,VWS V14.01,2014-10-01 04:48:00,
2014-10-01 00:51:00,53.6,49.2,30.02,NNW,336,0.0,5.0,85,0.00,,OVC013,0.00,VWS V14.01,2014-10-01 04:51:00,
2014-10-01 00:56:00,53.6,49.2,30.02,NNW,336,0.0,2.0,85,0.00,,OVC013,0.00,VWS V14.01,2014-10-01 04:56:00,
2014-10-01 01:01:00,53.6,49.2,30.02,NNW,336,1.0,2.0,85,0.00,,OVC013,0.00,VWS V14.01,2014-10-01 05:01:00,
2014-10-01 01:06:00,53.6,49.5,30.02,North,351,1.0,5.0,86,0.00,,OVC013,0.00,VWS V14.01,2014-10-01 05:06:00,
2014-10-01 01:11:00,53.7,49.6,30.02,North,350,0.0,1.0,86,0.00,,OVC013,0.00,VWS V14.01,2014-10-01 05:11:00,
2014-10-01 01:16:00,53.7,49.3,30.02,North,351,3.0,3.0,85,0.00,,OVC013,0.00,VWS V14.01,2014-10-01 05:16:00,
2014-10-01 01:21:00,53.7,49.6,30.02,North,353,3.0,4.0,86,0.00,,OVC013,0.00,VWS V14.01,2014-10-01 05:21:00,
2014-10-01 01:26:00,53.7,49.3,30.02,North,349,0.0,2.0,85,0.00,,OVC013,0.00,VWS V14.01,2014-10-01 05:26:00,
2014-10-01 01:31:00,53.7,49.3,30.02,North,0,2.0,3.0,85,0.00,,OVC011,0.00,VWS V14.01,2014-10-01 05:31:00,
2014-10-01 01:36:00,53.7,49.3,30.02,North,359,0.0,3.0,85,0.00,,OVC011,0.00,VWS V14.01,2014-10-01 05:36:00,
2014-10-01 01:41:00,53.7,49.3,30.02,North,359,0.0,3.0,85,0.00,,OVC011,0.00,VWS V14.01,2014-10-01 05:41:00,
2014-10-01 01:46:00,53.7,49.3,30.02,North,359,2.0,3.0,85,0.00,,OVC011,0.00,VWS V14.01,2014-10-01 05:46:00,
2014-10-01 01:50:00,53.7,49.6,30.03,North,0,1.0,2.0,86,0.00,,OVC011,0.00,VWS V14.01,2014-10-01 05:50:00,
2014-10-01 01:55:00,53.8,49.7,30.02,North,0,2.0,2.0,86,0.00,,OVC011,0.00,VWS V14.01,2014-10-01 05:55:00,
2014-10-01 02:00:00,53.8,49.7,30.02,North,0,0.0,0.0,86,0.00,,OVC009,0.00,VWS V14.01,2014-10-01 06:00:00,
2014-10-01 02:05:00,53.7,49.6,30.02,North,0,0.0,2.0,86,0.00,,OVC009,0.00,VWS V14.01,2014-10-01 06:05:00,
2014-10-01 02:10:00,53.7,49.6,30.01,North,0,1.0,1.0,86,0.00,,OVC009,0.00,VWS V14.01,2014-10-01 06:10:00,
2014-10-01 02:15:00,53.7,49.6,30.02,North,0,0.0,1.0,86,0.00,,OVC009,0.00,VWS V14.01,2014-10-01 06:15:00,
2014-10-01 02:20:00,53.6,49.5,30.02,North,0,0.0,0.0,86,0.00,,OVC009,0.00,VWS V14.01,2014-10-01 06:20:00,